FW3096 Weather Reports


time (UTC)temp
C
wind
direction
speed
KPH
gust
KPH
rain 1hr
cm
rain 24hr
cm
rain mn
cm
humidity
%
barometer
mb
20260506202008 19 183 1.6 17.7 0.00 0.18 0.18 83 1008.3
20260506201010 19 256 1.6 19.3 0.00 0.18 0.18 85 1008.3
20260506200508 18 226 4.8 19.3 0.00 0.18 0.18 85 1008.3
20260506200009 18 267 1.6 8.0 0.00 0.18 0.18 86 1008.4
20260506195510 18 198 0.0 9.7 0.00 0.18 0.18 86 1008.5
20260506195009 18 336 3.2 14.5 0.00 0.18 0.18 86 1008.6
20260506194507 18 250 4.8 14.5 0.00 0.18 0.18 86 1008.7
20260506194009 18 340 4.8 14.5 0.00 0.18 0.18 85 1008.7
20260506193009 18 126 1.6 16.1 0.00 0.18 0.18 86 1008.8
20260506192510 18 149 1.6 11.3 0.00 0.18 0.18 86 1008.8
20260506192009 18 171 3.2 16.1 0.00 0.18 0.18 87 1008.9
20260506191507 17 323 6.4 16.1 0.00 0.18 0.18 87 1009.0
20260506191009 17 232 1.6 16.1 0.00 0.18 0.18 87 1009.0
20260506190508 17 191 4.8 16.1 0.00 0.18 0.18 87 1009.1
20260506190009 17 196 4.8 12.9 0.00 0.18 0.18 87 1009.2
20260506185508 17 225 4.8 16.1 0.00 0.18 0.18 87 1009.2
20260506185010 17 360 3.2 20.9 0.00 0.18 0.18 87 1009.0
20260506184008 17 235 4.8 11.3 0.00 0.18 0.18 88 1009.2
20260506182510 17 155 3.2 16.1 0.00 0.18 0.18 89 1009.4
20260506182010 17 355 6.4 16.1 0.00 0.18 0.18 90 1009.5
20260506181509 17 333 3.2 8.0 0.00 0.18 0.18 90 1009.6
20260506180509 17 273 3.2 14.5 0.00 0.18 0.18 90 1009.4
20260506180011 17 197 1.6 11.3 0.00 0.18 0.18 91 1009.6
20260506175509 16 293 1.6 9.7 0.00 0.18 0.18 91 1009.7
20260506175011 16 288 3.2 11.3 0.00 0.18 0.18 91 1009.7
20260506174508 16 204 6.4 11.3 0.00 0.18 0.18 91 1009.7
20260506173510 16 90 1.6 19.3 0.00 0.18 0.18 91 1009.8
20260506173009 16 175 3.2 19.3 0.00 0.18 0.18 91 1009.7
20260506172008 16 131 1.6 6.4 0.00 0.18 0.18 92 1009.8
20260506171508 16 136 1.6 17.7 0.03 0.18 0.18 92 1009.7
20260506170509 16 233 4.8 14.5 0.05 0.18 0.18 92 1010.0
20260506170010 16 48 6.4 14.5 0.08 0.18 0.18 92 1010.0
20260506165010 16 225 3.2 16.1 0.10 0.18 0.18 93 1010.0
20260506164009 16 271 1.6 12.9 0.13 0.18 0.18 93 1010.0
20260506163010 16 173 0.0 8.0 0.13 0.18 0.18 92 1010.2
20260506162507 16 148 1.6 8.0 0.13 0.18 0.18 92 1010.1
20260506162010 16 117 3.2 8.0 0.15 0.18 0.18 93 1010.2
20260506161508 16 157 1.6 8.0 0.13 0.15 0.15 92 1010.4
20260506161008 16 189 3.2 9.7 0.13 0.13 0.13 92 1010.5
20260506160509 16 160 3.2 14.5 0.13 0.13 0.13 91 1010.7
20260506160011 16 146 4.8 14.5 0.10 0.10 0.10 90 1010.9
20260506155508 16 317 1.6 9.7 0.10 0.10 0.10 89 1011.2
20260506154508 17 46 6.4 16.1 0.08 0.08 0.08 89 1011.3
20260506154009 17 223 1.6 6.4 0.05 0.05 0.05 89 1011.2
20260506153509 17 34 0.0 11.3 0.05 0.05 0.05 87 1011.3
20260506153009 17 215 0.0 11.3 0.05 0.05 0.05 87 1011.3
20260506152508 17 238 4.8 12.9 0.05 0.05 0.05 86 1011.3
20260506152010 17 309 3.2 14.5 0.03 0.03 0.03 85 1011.1
20260506151508 17 233 1.6 14.5 0.03 0.03 0.03 83 1011.0
20260506151008 17 241 6.4 14.5 0.00 0.00 0.00 83 1011.0
20260506150009 17 171 1.6 11.3 0.00 0.00 0.00 81 1010.9
20260506145508 18 202 4.8 12.9 0.00 0.00 0.00 80 1011.0
20260506145010 18 283 1.6 12.9 0.00 0.00 0.00 80 1011.1
20260506144009 18 187 6.4 17.7 0.00 0.00 0.00 79 1011.0
20260506143508 18 203 4.8 14.5 0.00 0.00 0.00 78 1010.9
20260506142508 18 128 3.2 12.9 0.00 0.00 0.00 77 1011.2
20260506142008 19 5 6.4 12.9 0.00 0.00 0.00 75 1011.1
20260506141509 19 218 6.4 11.3 0.00 0.00 0.00 74 1011.2
20260506141008 19 315 3.2 16.1 0.00 0.00 0.00 73 1011.1
20260506140508 19 70 4.8 19.3 0.00 0.00 0.00 73 1011.1
20260506140008 20 265 3.2 19.3 0.00 0.00 0.00 72 1011.0
20260506135507 20 278 8.0 16.1 0.00 0.00 0.00 72 1011.0
20260506135009 20 260 6.4 14.5 0.00 0.00 0.00 72 1010.9
20260506133508 19 181 6.4 16.1 0.00 0.00 0.00 75 1010.9
20260506133008 18 271 3.2 11.3 0.00 0.00 0.00 76 1011.0
20260506132506 18 130 4.8 14.5 0.00 0.00 0.00 75 1011.1
20260506132009 18 336 1.6 14.5 0.00 0.00 0.00 76 1011.1
20260506131507 18 186 4.8 19.3 0.00 0.00 0.00 76 1011.0
20260506131007 18 167 6.4 19.3 0.00 0.00 0.00 76 1011.1
20260506125010 18 227 3.2 20.9 0.00 0.00 0.00 77 1011.4
20260506124507 18 355 6.4 20.9 0.00 0.00 0.00 77 1011.4
20260506124009 18 142 6.4 12.9 0.00 0.00 0.00 77 1011.3
20260506122011 18 13 3.2 19.3 0.00 0.00 0.00 79 1011.3
20260506121008 18 168 6.4 16.1 0.00 0.00 0.00 79 1011.1
20260506120508 18 169 4.8 9.7 0.00 0.00 0.00 79 1011.1
20260506120010 18 85 4.8 12.9 0.00 0.00 0.00 81 1011.0
20260506115507 17 192 4.8 12.9 0.00 0.00 0.00 82 1011.1
20260506114508 17 81 3.2 9.7 0.00 0.00 0.00 82 1011.0
20260506114008 17 150 3.2 17.7 0.00 0.00 0.00 82 1011.0
20260506113509 17 157 6.4 17.7 0.00 0.00 0.00 82 1010.9
20260506113009 17 215 6.4 14.5 0.00 0.00 0.00 83 1011.0
20260506112507 17 165 6.4 12.9 0.00 0.00 0.00 83 1011.0
20260506112010 17 76 4.8 12.9 0.00 0.00 0.00 83 1011.1
20260506111508 17 166 3.2 14.5 0.00 0.00 0.00 83 1010.9
20260506111008 17 78 6.4 16.1 0.00 0.00 0.00 83 1011.1
20260506110510 17 136 6.4 16.1 0.00 0.00 0.00 83 1011.0
20260506110011 17 235 4.8 12.9 0.00 0.00 0.00 84 1010.9
20260506105508 17 145 3.2 8.0 0.00 0.00 0.00 84 1010.9
20260506105010 17 162 3.2 9.7 0.00 0.00 0.00 84 1011.1
20260506104507 17 181 3.2 11.3 0.00 0.00 0.00 84 1011.0
20260506104009 17 108 1.6 11.3 0.00 0.00 0.00 84 1010.9
20260506103507 17 92 1.6 11.3 0.00 0.00 0.00 84 1011.0
20260506103009 16 157 3.2 12.9 0.00 0.00 0.00 85 1011.0
20260506101010 16 171 1.6 11.3 0.00 0.00 0.00 84 1010.9
20260506100508 16 180 3.2 14.5 0.00 0.00 0.00 84 1010.9
20260506100009 17 213 4.8 14.5 0.00 0.00 0.00 84 1010.9
20260506095508 17 105 3.2 11.3 0.00 0.00 0.00 84 1010.9
20260506095008 17 158 0.0 6.4 0.00 0.00 0.00 84 1011.0
20260506094507 17 188 1.6 9.7 0.00 0.00 0.00 83 1011.1
20260506094009 17 75 0.0 6.4 0.00 0.00 0.00 83 1011.1
20260506093007 17 94 1.6 9.7 0.00 0.00 0.00 83 1011.0
20260506092509 17 301 1.6 6.4 0.00 0.00 0.00 83 1011.0
20260506092008 17 182 3.2 12.9 0.00 0.00 0.00 83 1010.9
20260506091506 17 200 6.4 14.5 0.00 0.00 0.00 83 1010.9
20260506091009 17 140 0.0 6.4 0.00 0.00 0.00 82 1011.0
20260506090506 17 213 1.6 8.0 0.00 0.00 0.00 82 1011.0
20260506090008 17 171 4.8 8.0 0.00 0.00 0.00 82 1011.0
20260506085508 17 198 3.2 8.0 0.00 0.00 0.00 82 1011.1
20260506085007 17 210 1.6 8.0 0.00 0.00 0.00 82 1011.1
20260506084507 17 87 1.6 9.7 0.00 0.00 0.00 82 1011.2
20260506084009 17 86 1.6 9.7 0.00 0.00 0.00 82 1011.0
20260506083508 17 181 3.2 9.7 0.00 0.00 0.00 82 1011.1
20260506082507 17 161 1.6 11.3 0.00 0.00 0.00 82 1011.1
20260506082010 17 167 1.6 8.0 0.00 0.00 0.00 81 1011.1
20260506081508 17 167 3.2 8.0 0.00 0.00 0.00 82 1011.3
20260506081009 17 165 4.8 8.0 0.00 0.00 0.00 82 1011.2
20260506080509 17 157 1.6 9.7 0.00 0.00 0.00 82 1011.2
20260506073508 17 144 1.6 4.8 0.00 0.00 0.00 81 1011.2
20260506073008 17 162 0.0 4.8 0.00 0.00 0.00 81 1011.3
20260506072506 17 207 1.6 4.8 0.00 0.00 0.00 81 1011.3
20260506072009 17 96 0.0 4.8 0.00 0.00 0.00 81 1011.3
20260506071008 17 157 0.0 4.8 0.00 0.00 0.00 81 1011.3
20260506070507 17 196 1.6 6.4 0.00 0.00 0.00 81 1011.3
20260506062009 18 166 0.0 8.0 0.00 0.00 0.00 78 1011.7
20260506061507 18 139 1.6 6.4 0.00 0.00 0.00 78 1011.5
20260506061008 18 138 0.0 6.4 0.00 0.00 0.00 78 1011.5
20260506060508 18 159 0.0 6.4 0.00 0.00 0.00 78 1011.5
20260506051009 18 190 1.6 8.0 0.00 0.00 0.00 76 1011.9
20260506050507 18 145 3.2 8.0 0.00 0.00 0.00 76 1012.0
20260506045009 18 118 3.2 9.7 0.00 0.00 0.00 76 1012.2
20260506044508 18 173 3.2 14.5 0.00 0.00 0.00 75 1012.2
20260506044010 18 166 6.4 14.5 0.00 0.00 0.00 75 1012.2
20260506043508 18 167 3.2 9.7 0.00 0.00 0.00 75 1012.2
20260506043009 18 103 0.0 11.3 0.00 0.00 0.00 74 1012.2
20260506042510 18 93 0.0 11.3 0.00 0.00 0.00 73 1012.2
20260506042009 18 148 0.0 6.4 0.00 0.00 0.00 73 1012.2
20260506041509 18 198 0.0 4.8 0.00 0.00 0.00 73 1012.2
20260506041011 19 178 0.0 8.0 0.00 0.00 0.00 72 1012.2
20260506040508 19 161 1.6 8.0 0.00 0.00 0.00 72 1012.1
20260506040016 19 122 1.6 6.4 0.00 0.00 0.00 71 1012.1
20260506035510 19 150 0.0 11.3 0.00 0.00 0.00 71 1012.1
20260506035010 19 170 3.2 11.3 0.00 0.00 0.00 71 1012.2
20260506034509 19 234 4.8 9.7 0.00 0.00 0.00 71 1012.2
20260506034011 19 165 4.8 14.5 0.00 0.00 0.00 71 1012.1
20260506033509 19 138 6.4 14.5 0.00 0.00 0.00 70 1012.1
20260506033009 19 121 3.2 8.0 0.00 0.00 0.00 70 1012.0
20260506032510 19 145 3.2 8.0 0.00 0.00 0.00 69 1011.9
20260506032009 20 163 3.2 9.7 0.00 0.00 0.00 69 1011.9
20260506031510 20 161 3.2 11.3 0.00 0.00 0.00 69 1011.9
20260506030509 20 57 4.8 9.7 0.00 0.00 0.00 68 1012.1
20260506025009 20 213 3.2 11.3 0.00 0.00 0.00 67 1012.0
20260506024511 20 167 3.2 8.0 0.00 0.00 0.00 66 1012.1
20260506024009 20 155 0.0 8.0 0.00 0.00 0.00 65 1012.2
20260506023508 20 175 3.2 8.0 0.00 0.00 0.00 65 1012.2
20260506023011 21 172 0.0 9.7 0.00 0.00 0.00 64 1012.2
20260506022508 21 146 3.2 9.7 0.00 0.00 0.00 63 1012.1
20260506021510 21 151 3.2 11.3 0.00 0.00 0.00 61 1012.0
20260506021009 21 149 0.0 8.0 0.00 0.00 0.00 61 1012.0
20260506020509 21 73 3.2 12.9 0.00 0.00 0.00 60 1011.9
20260506020013 21 154 3.2 11.3 0.00 0.00 0.00 60 1011.9
20260506015509 21 148 4.8 14.5 0.00 0.00 0.00 59 1011.8
20260506015009 21 153 4.8 14.5 0.00 0.00 0.00 59 1011.8
20260506014510 21 171 4.8 12.9 0.00 0.00 0.00 58 1011.9
20260506014009 22 139 3.2 11.3 0.00 0.00 0.00 58 1011.7
20260506013508 22 150 4.8 12.9 0.00 0.00 0.00 58 1011.6
20260506013012 22 162 6.4 12.9 0.00 0.00 0.00 57 1011.6
20260506012010 22 194 4.8 11.3 0.00 0.00 0.00 57 1011.5
20260506011509 22 170 4.8 11.3 0.00 0.00 0.00 56 1011.5
20260506011009 22 150 3.2 8.0 0.00 0.00 0.00 56 1011.5
20260506010508 22 191 3.2 9.7 0.00 0.00 0.00 56 1011.4
20260506010011 22 27 3.2 8.0 0.00 0.00 0.00 56 1011.4
20260506005509 22 230 3.2 8.0 0.00 0.00 0.00 55 1011.3
20260506005009 22 134 1.6 9.7 0.00 0.00 0.00 55 1011.2
20260506004508 22 143 1.6 9.7 0.00 0.00 0.00 54 1011.1
20260506004011 22 175 4.8 9.7 0.00 0.00 0.00 54 1011.2
20260506003508 22 348 1.6 11.3 0.00 0.00 0.00 53 1011.2
20260506002510 22 98 3.2 12.9 0.00 0.00 0.00 52 1011.0
20260506001011 23 197 4.8 12.9 0.00 0.00 0.00 51 1010.7
20260506000509 23 277 4.8 20.9 0.00 0.00 0.00 51 1010.7
20260505235009 23 178 3.2 11.3 0.00 0.00 0.00 51 1010.3
20260505234509 23 158 1.6 16.1 0.00 0.00 0.00 51 1010.4
20260505234011 23 109 8.0 16.1 0.00 0.00 0.00 50 1010.3
20260505233509 23 156 4.8 12.9 0.00 0.00 0.00 51 1010.4
20260505232510 24 168 6.4 14.5 0.00 0.00 0.00 50 1010.2
20260505232010 24 138 4.8 11.3 0.00 0.00 0.00 50 1010.3
20260505231508 24 207 1.6 19.3 0.00 0.00 0.00 50 1010.2
20260505231013 25 157 8.0 19.3 0.00 0.00 0.00 50 1010.2
20260505230509 25 162 6.4 16.1 0.00 0.00 0.00 49 1010.1
20260505225508 25 148 4.8 9.7 0.00 0.00 0.00 48 1010.2
20260505224509 25 154 3.2 14.5 0.00 0.00 0.00 49 1010.0
20260505224009 25 109 6.4 14.5 0.00 0.00 0.00 49 1010.1
20260505223508 25 138 3.2 8.0 0.00 0.00 0.00 49 1010.0
20260505223010 25 207 3.2 9.7 0.00 0.00 0.00 48 1010.2
20260505222009 26 141 3.2 19.3 0.00 0.00 0.00 45 1010.3
20260505221509 26 255 6.4 19.3 0.00 0.00 0.00 43 1010.4
20260505221009 26 248 6.4 19.3 0.00 0.00 0.00 42 1010.4
20260505220508 26 202 4.8 19.3 0.00 0.00 0.00 41 1010.4
20260505220010 26 235 8.0 24.1 0.00 0.00 0.00 40 1010.2
20260505214508 27 155 9.7 19.3 0.00 0.00 0.00 39 1010.0
20260505214011 27 218 4.8 19.3 0.00 0.00 0.00 39 1010.1
20260505213509 27 114 8.0 22.5 0.00 0.00 0.00 40 1010.2
20260505213009 27 127 9.7 24.1 0.00 0.00 0.00 38 1010.3
20260505212009 27 159 8.0 16.1 0.00 0.00 0.00 39 1010.0
20260505211508 27 273 3.2 16.1 0.00 0.00 0.00 40 1010.1
20260505211011 27 229 4.8 20.9 0.00 0.00 0.00 39 1010.1
20260505210508 27 225 4.8 20.9 0.00 0.00 0.00 39 1010.1
20260505210012 27 198 8.0 22.5 0.00 0.00 0.00 38 1010.1
20260505205509 27 248 4.8 20.9 0.00 0.00 0.00 38 1010.0
20260505205008 27 242 8.0 24.1 0.00 0.00 0.00 38 1010.0
20260505204507 27 184 11.3 24.1 0.00 0.00 0.00 38 1010.0
20260505204009 27 18 6.4 24.1 0.00 0.00 0.00 38 1010.0
20260505203508 27 101 6.4 16.1 0.00 0.00 0.00 37 1010.1
20260505203008 27 310 6.4 22.5 0.00 0.00 0.00 38 1010.0
20260505202507 27 218 8.0 22.5 0.00 0.00 0.00 36 1010.0